Weather History for Warner Robins, GA

Change the Weather History Date:

Thursday, January 23, 2014

  Actual Average Record
Temperature  
Mean Temperature 36 °F -  
Max Temperature 48 °F 55 °F 71 °F (1997)
Min Temperature 24 °F 33 °F 23 °F (2003)
Degree Days  
Heating Degree Days 29    
Moisture  
Dew Point 11 °F    
Average Humidity 40    
Maximum Humidity 81    
Minimum Humidity 19    
Precipitation  
Precipitation 0.00 in - - ()
Sea Level Pressure  
Sea Level Pressure 30.35 in    
Wind  
Wind Speed 6 mph (NNW)    
Max Wind Speed 18 mph    
Max Gust Speed 24 mph    
Visibility 10 miles    
Events      
Averages and records for this station are not official NWS values.
T = Trace of Precipitation, MM = Missing Value Source: NWS Daily Summary

Daily Weather History Graph

Daily Weather History Graph

Search for Another Location

Airport:

Trip Planner

Search our weather history database for the weather conditions in past years. The results will help you decide how hot, cold, wet, or windy it might be!

Date:

Astronomy

Jan. 23, 2014 Rise Set
Actual Time 7:34 AM EST 5:58 PM EST
Civil Twilight 7:07 AM EST 6:25 PM EST
Nautical Twilight 6:37 AM EST 6:54 PM EST
Astronomical Twilight 6:08 AM EST 7:24 PM EST
Moon 12:05 AM EST (1/23) 11:33 AM EST (1/23)
Length of Visible Light 11h 17m
Length of Day
10h 24m
Waning Gibbous, 55% of the Moon is Illuminated
Jan 23
Waning Gibbous
Jan 24
Last Quarter
Jan 30
New
Feb 6
First Quarter
Feb 14
Full

Hourly Weather History & Observations

Time (EST) Temp. Windchill Dew Point Humidity Pressure Visibility Wind Dir Wind Speed Gust Speed Precip Events Conditions
12:58 AM 28.2 °F - 14.0 °F 55% 30.22 in 10.0 mi Calm Calm - N/A   Clear
1:58 AM 27.0 °F - 16.7 °F 65% 30.23 in 10.0 mi Calm Calm - N/A   Clear
2:58 AM 26.4 °F - 20.7 °F 79% 30.23 in 10.0 mi Calm Calm - N/A   Clear
3:58 AM 25.5 °F - 20.3 °F 81% 30.25 in 10.0 mi NW 1.2 mph - N/A   Clear
4:58 AM 24.3 °F 18.4 °F 15.4 °F 69% 30.27 in 10.0 mi North 4.6 mph - N/A   Clear
5:58 AM 27.1 °F 21.8 °F 13.6 °F 57% 30.29 in 10.0 mi North 4.6 mph - N/A   Clear
6:58 AM 27.3 °F 20.9 °F 14.2 °F 58% 30.33 in 10.0 mi NNW 5.8 mph - N/A   Clear
9:58 AM 35.2 °F 27.1 °F 12.9 °F 40% 30.40 in 10.0 mi NNW 11.5 mph - N/A   Clear
10:58 AM 38.8 °F 32.6 °F 10.2 °F 31% 30.41 in 10.0 mi North 9.2 mph - N/A   Clear
11:58 AM 40.5 °F 38.4 °F 6.4 °F 25% 30.39 in 10.0 mi NW 3.5 mph - N/A   Clear
12:58 PM 43.7 °F 38.6 °F 6.8 °F 22% 30.37 in 10.0 mi NW 9.2 mph - N/A   Clear
1:58 PM 45.1 °F 39.1 °F 7.5 °F 22% 30.34 in 10.0 mi WNW 12.7 mph - N/A   Clear
2:58 PM 47.8 °F - 8.1 °F 20% 30.33 in 10.0 mi NW 11.5 mph - N/A   Clear
3:34 PM 48.2 °F - 6.8 °F 19% 30.32 in 10.0 mi WNW 12.7 mph 23.0 mph N/A   Clear
3:58 PM 47.3 °F - 8.2 °F 20% 30.34 in 10.0 mi NNW 13.8 mph - N/A   Clear
4:58 PM 46.6 °F - 7.5 °F 20% 30.36 in 10.0 mi NW 11.5 mph - N/A   Clear
5:58 PM 42.4 °F 37.0 °F 8.1 °F 24% 30.38 in 10.0 mi WNW 9.2 mph - N/A   Clear
6:58 PM 39.4 °F 33.2 °F 7.5 °F 27% 30.40 in 10.0 mi NW 9.2 mph - N/A   Scattered Clouds
7:58 PM 34.3 °F 27.7 °F 11.1 °F 38% 30.41 in 10.0 mi NNW 8.1 mph - N/A   Clear
8:58 PM 34.7 °F 25.5 °F 10.2 °F 36% 30.43 in 10.0 mi NNW 13.8 mph 18.4 mph N/A   Clear
9:58 PM 35.1 °F 26.4 °F 11.5 °F 38% 30.45 in 10.0 mi NNW 12.7 mph - N/A   Clear
10:58 PM 34.5 °F 24.8 °F 10.0 °F 36% 30.46 in 10.0 mi North 15.0 mph - N/A   Overcast
11:58 PM 32.5 °F 21.2 °F 8.1 °F 36% 30.48 in 10.0 mi NNW 18.4 mph 24.2 mph N/A   Mostly Cloudy